EW4529 Weather Reports


Display with metric or nautical units.
time (UTC)temp
F
wind
direction
speed
MPH
gust
MPH
rain 1hr
in
rain 24hr
in
rain mn
in
humidity
%
barometer
mb
20260508220333 67 7 0.0 5.0 0.00 0.00 0.00 40 1010.9
20260508215334 67 100 0.0 2.0 0.00 0.00 0.00 40 1010.9
20260508214329 67 290 1.0 5.0 0.00 0.00 0.00 37 1010.8
20260508213333 68 243 0.0 6.0 0.00 0.00 0.00 37 1010.8
20260508212312 69 273 1.0 6.0 0.00 0.00 0.00 35 1010.7
20260508211310 69 297 1.0 6.0 0.00 0.00 0.00 35 1010.9
20260508210336 69 139 1.0 7.0 0.00 0.00 0.00 38 1011.0
20260508205311 67 13 2.0 10.0 0.00 0.00 0.00 36 1011.0
20260508204311 66 146 1.0 8.0 0.00 0.00 0.00 38 1011.1
20260508203335 67 12 0.0 4.0 0.00 0.00 0.00 38 1011.2
20260508202316 68 162 1.0 7.0 0.00 0.00 0.00 37 1011.1
20260508201316 69 255 1.0 6.0 0.00 0.00 0.00 39 1011.1
20260508200312 67 222 1.0 4.0 0.00 0.00 0.00 39 1011.2
20260508195317 66 225 0.0 3.0 0.00 0.00 0.00 37 1011.3
20260508194320 67 342 0.0 7.0 0.00 0.00 0.00 38 1011.4
20260508193315 67 324 1.0 4.0 0.00 0.00 0.00 37 1011.4
20260508192319 67 143 1.0 5.0 0.00 0.00 0.00 36 1011.4
20260508191315 68 136 0.0 7.0 0.00 0.00 0.00 35 1011.4
20260508190316 70 181 0.0 5.0 0.00 0.00 0.00 35 1011.4
20260508185318 69 235 2.0 5.0 0.00 0.00 0.00 35 1011.6
20260508184310 69 294 1.0 7.0 0.00 0.00 0.00 35 1011.7
20260508183331 69 150 2.0 10.0 0.00 0.00 0.00 33 1011.7
20260508182311 69 10 2.0 10.0 0.00 0.00 0.00 34 1011.8
20260508181333 69 269 2.0 7.0 0.00 0.00 0.00 34 1012.0
20260508180332 69 89 1.0 5.0 0.00 0.00 0.00 36 1012.2
20260508175334 67 278 0.0 5.0 0.00 0.00 0.00 37 1012.3
20260508174333 66 148 0.0 8.0 0.00 0.00 0.00 36 1012.6
20260508173311 67 14 1.0 7.0 0.00 0.00 0.00 35 1012.5
20260508172309 68 46 2.0 7.0 0.00 0.00 0.00 36 1012.6
20260508171310 68 358 1.0 8.0 0.00 0.00 0.00 37 1012.5
20260508170315 68 217 2.0 11.0 0.00 0.00 0.00 35 1012.5
20260508165311 68 7 1.0 7.0 0.00 0.00 0.00 36 1012.4
20260508164340 67 91 1.0 5.0 0.00 0.00 0.00 36 1012.6
20260508163313 66 285 1.0 10.0 0.00 0.00 0.00 41 1012.9
20260508162315 66 299 3.0 10.0 0.00 0.00 0.00 36 1013.2
20260508161316 68 247 1.0 7.0 0.00 0.00 0.00 36 1013.3
20260508160313 68 142 2.0 8.0 0.00 0.00 0.00 34 1013.5
20260508155333 67 254 1.0 9.0 0.00 0.00 0.00 36 1013.6
20260508154314 68 75 2.0 8.0 0.00 0.00 0.00 37 1013.8
20260508153312 66 279 1.0 6.0 0.00 0.00 0.00 37 1013.8
20260508152308 63 224 0.0 7.0 0.00 0.00 0.00 39 1014.0
20260508151335 66 146 1.0 5.0 0.00 0.00 0.00 36 1013.9
20260508150325 65 323 2.0 8.0 0.00 0.00 0.00 37 1014.0
20260508145323 63 217 0.0 4.0 0.00 0.00 0.00 40 1014.0
20260508144311 62 311 1.0 5.0 0.00 0.00 0.00 39 1014.1
20260508143352 62 124 2.0 5.0 0.00 0.00 0.00 38 1014.2
20260508142334 62 126 1.0 4.0 0.00 0.00 0.00 39 1014.2
20260508141334 61 79 1.0 5.0 0.00 0.00 0.00 40 1014.2
20260508140356 60 30 1.0 6.0 0.00 0.00 0.00 45 1014.2
20260508135335 59 309 1.0 3.0 0.00 0.00 0.00 44 1014.3
20260508134328 59 156 0.0 3.0 0.00 0.00 0.00 45 1014.3
20260508133333 59 335 1.0 3.0 0.00 0.00 0.00 42 1014.4
20260508132334 58 245 0.0 6.0 0.00 0.00 0.00 43 1014.4
20260508131313 58 165 0.0 2.0 0.00 0.00 0.00 46 1014.5
20260508130334 57 20 2.0 4.0 0.00 0.00 0.00 49 1014.6
20260508125353 57 302 0.0 3.0 0.00 0.00 0.00 53 1014.4
20260508124324 55 8 0.0 6.0 0.00 0.00 0.00 57 1014.5
20260508123326 55 32 1.0 5.0 0.00 0.00 0.00 58 1014.6
20260508122326 54 342 1.0 3.0 0.00 0.00 0.00 64 1014.5
20260508121347 53 330 1.0 5.0 0.00 0.00 0.00 68 1014.5
20260508120318 52 356 1.0 2.0 0.00 0.00 0.00 71 1014.2
20260508115322 50 353 0.0 4.0 0.00 0.00 0.00 76 1014.2
20260508114321 49 13 1.0 3.0 0.00 0.00 0.00 78 1014.0
20260508113327 48 126 0.0 2.0 0.00 0.00 0.00 81 1014.2
20260508112332 47 30 0.0 1.0 0.00 0.00 0.00 84 1014.3
20260508111335 46 30 0.0 2.0 0.00 0.00 0.00 86 1014.2
20260508110311 45 8 0.0 2.0 0.00 0.00 0.00 89 1014.1
20260508105314 44 326 0.0 0.0 0.00 0.00 0.00 90 1014.1
20260508104313 43 326 0.0 0.0 0.00 0.00 0.00 90 1013.9
20260508103315 43 326 0.0 0.0 0.00 0.00 0.00 90 1013.7
20260508102316 43 326 0.0 0.0 0.00 0.00 0.00 89 1013.7
20260508101321 43 326 0.0 0.0 0.00 0.00 0.00 88 1013.7
20260508100313 43 326 0.0 0.0 0.00 0.00 0.00 87 1013.4
20260508095313 43 326 0.0 0.0 0.00 0.00 0.00 85 1013.3
20260508094312 44 326 0.0 0.0 0.00 0.00 0.00 84 1013.2
20260508093325 45 326 0.0 0.0 0.00 0.00 0.00 82 1013.2
20260508092323 46 326 0.0 0.0 0.00 0.00 0.00 80 1013.2
20260508091345 47 326 0.0 0.0 0.00 0.00 0.00 79 1013.2
20260508090348 47 325 0.0 2.0 0.00 0.00 0.00 78 1013.1
20260508085330 47 333 0.0 0.0 0.00 0.01 0.00 77 1013.0
20260508084348 48 327 0.0 0.0 0.00 0.01 0.00 75 1012.9
20260508083325 49 327 0.0 0.0 0.00 0.01 0.00 74 1012.7
20260508082323 49 327 0.0 5.0 0.00 0.01 0.00 72 1012.5
20260508081322 50 2 0.0 4.0 0.00 0.01 0.00 71 1012.3
20260508080325 50 257 0.0 3.0 0.00 0.01 0.00 70 1012.2
20260508075311 51 8 1.0 5.0 0.00 0.03 0.00 69 1011.9
20260508074314 51 257 2.0 6.0 0.00 0.03 0.00 68 1011.8
20260508073314 51 348 2.0 5.0 0.00 0.03 0.00 68 1011.8
20260508072310 52 82 2.0 5.0 0.00 0.03 0.00 67 1011.6
20260508071311 52 13 1.0 6.0 0.00 0.03 0.00 66 1011.4
20260508070313 52 321 2.0 8.0 0.00 0.03 0.00 66 1011.3
20260508065333 52 79 1.0 11.0 0.00 0.07 0.00 67 1011.1
20260508064334 53 15 1.0 4.0 0.00 0.07 0.00 69 1010.8
20260508063312 53 3 1.0 6.0 0.00 0.07 0.00 70 1010.7
20260508062310 52 30 0.0 3.0 0.00 0.07 0.00 76 1010.7
20260508061340 53 344 0.0 4.0 0.00 0.07 0.00 75 1010.2
20260508060312 53 148 0.0 1.0 0.00 0.07 0.00 74 1010.2
20260508055320 54 289 0.0 4.0 0.00 0.13 0.00 73 1010.1
20260508054311 54 165 1.0 6.0 0.00 0.13 0.00 72 1010.0
20260508053313 54 354 1.0 4.0 0.00 0.13 0.00 72 1009.9
20260508052314 55 195 0.0 4.0 0.00 0.13 0.00 71 1009.9
20260508051325 55 135 0.0 5.0 0.00 0.13 0.00 71 1009.8
20260508050350 55 93 1.0 3.0 0.00 0.13 0.00 70 1009.5
20260508045334 55 214 2.0 7.0 0.00 0.13 0.00 70 1009.5
20260508044354 55 240 1.0 6.0 0.00 0.13 0.00 69 1009.5
20260508043311 55 16 0.0 4.0 0.00 0.13 0.00 69 1009.4
20260508042311 55 122 0.0 4.0 0.00 0.13 0.00 69 1009.6
20260508041308 55 56 0.0 4.0 0.00 0.13 0.00 68 1009.6
20260508040310 55 216 0.0 2.0 0.00 0.13 0.00 66 1009.5
20260508035313 55 255 0.0 3.0 0.00 0.15 0.13 65 1009.5
20260508034336 55 126 1.0 3.0 0.00 0.15 0.13 63 1009.4
20260508033311 55 113 1.0 5.0 0.00 0.15 0.13 62 1009.4
20260508032320 54 281 0.0 3.0 0.00 0.15 0.13 64 1009.4
20260508031344 52 44 0.0 0.0 0.00 0.15 0.13 77 1009.2
20260508030319 52 44 0.0 0.0 0.00 0.15 0.13 75 1009.3
20260508025322 52 44 0.0 0.0 0.00 0.21 0.13 76 1009.2
20260508024324 51 44 0.0 1.0 0.00 0.21 0.13 77 1009.4
20260508023323 51 44 0.0 0.0 0.00 0.21 0.13 77 1009.2
20260508022346 51 44 0.0 0.0 0.00 0.21 0.13 77 1009.3
20260508021330 51 44 0.0 0.0 0.00 0.21 0.13 75 1009.3
20260508020309 51 44 0.0 0.0 0.00 0.21 0.13 75 1009.3
20260508015340 51 44 0.0 0.0 0.00 0.21 0.13 72 1009.1
20260508014315 52 44 0.0 0.0 0.00 0.21 0.13 70 1009.1
20260508013320 52 44 0.0 0.0 0.00 0.21 0.13 70 1009.1
20260508012324 53 44 0.0 0.0 0.00 0.21 0.13 67 1009.0
20260508011322 54 44 0.0 0.0 0.00 0.21 0.13 64 1008.9
20260508010327 54 44 0.0 0.0 0.00 0.21 0.13 60 1008.9
20260508005310 55 44 0.0 0.0 0.00 0.21 0.13 57 1008.9
20260508004340 55 44 0.0 0.0 0.00 0.21 0.13 57 1008.9
20260508003316 56 44 0.0 0.0 0.00 0.21 0.13 57 1008.7
20260508002342 56 44 0.0 0.0 0.00 0.21 0.13 55 1008.6
20260508001319 57 44 0.0 0.0 0.00 0.21 0.13 52 1008.6
20260508000320 58 44 0.0 0.0 0.00 0.21 0.13 50 1008.5
20260507235343 59 44 0.0 0.0 0.00 0.21 0.13 47 1008.3
20260507234326 60 44 0.0 0.0 0.00 0.21 0.13 44 1008.3
20260507233321 61 46 0.0 3.0 0.00 0.21 0.13 41 1008.3
20260507232353 62 360 0.0 3.0 0.00 0.21 0.13 39 1008.3
20260507231309 62 2 0.0 2.0 0.00 0.21 0.13 39 1008.2
20260507230309 63 347 0.0 5.0 0.00 0.21 0.13 38 1008.1
20260507225311 63 325 0.0 5.0 0.00 0.21 0.13 36 1008.0
20260507224314 63 335 1.0 3.0 0.00 0.21 0.13 37 1008.0
20260507223313 64 239 0.0 3.0 0.00 0.21 0.13 36 1007.9
20260507222318 64 173 0.0 2.0 0.00 0.21 0.13 38 1008.0
20260507221327 64 167 1.0 5.0 0.00 0.21 0.13 36 1008.1